[TLELIST] Archives

 

[list_settings.list_name] Current TLEs

March 3rd 2022 PST

HST 1 20580U 90037B 22061.71857573 .00001429 00000-0 74644-4 0 9993 2 20580 28.4693 155.7780 0002423 332.0725 160.1068 15.10081812550060 ISS (ZARYA) 1 25544U 98067A 22062.38396271 .00007764 00000-0 14612-3 0 9992 2 25544 51.6439 140.5532 0005582 206.6825 247.4875 15.49550314328770 CXO 1 25867U 99040B 22062.27326428 .00000678 00000-0 00000-0 0 9997 2 25867 48.3019 242.2619 8689945 230.4207 0.6701 0.37808413 11402 ____________________________________________________________________ These 2-Line ...Continue Reading

[list_settings.list_name] Current TLEs

March 2nd 2022 PST

HST 1 20580U 90037B 22060.66290154 .00001619 00000-0 86015-4 0 9998 2 20580 28.4692 162.7679 0002370 319.8960 181.9495 15.10079990549909 ISS (ZARYA) 1 25544U 98067A 22061.21033787 .00008312 00000-0 15594-3 0 9993 2 25544 51.6434 146.3647 0005536 203.7607 179.2077 15.49533599328593 CXO 1 25867U 99040B 22062.27326428 .00000678 00000-0 00000-0 0 9997 2 25867 48.3019 242.2619 8689945 230.4207 0.6701 0.37808413 11402 ____________________________________________________________________ These 2-Line ...Continue Reading

[list_settings.list_name] Current TLEs

March 1st 2022 PST

HST 1 20580U 90037B 22059.67079747 .00001656 00000-0 88233-4 0 9995 2 20580 28.4692 169.3370 0002342 308.4871 189.3041 15.10077424549756 ISS (ZARYA) 1 25544U 98067A 22060.38913650 .00008139 00000-0 15294-3 0 9990 2 25544 51.6428 150.4307 0005541 200.5542 278.4832 15.49518419328465 CXO 1 25867U 99040B 22062.27326428 .00000678 00000-0 00000-0 0 9997 2 25867 48.3019 242.2619 8689945 230.4207 0.6701 0.37808413 11402 ____________________________________________________________________ These 2-Line ...Continue Reading

[list_settings.list_name] Current TLEs

February 28th 2022 PST

HST 1 20580U 90037B 22058.74811396 .00001674 00000-0 89337-4 0 9992 2 20580 28.4692 175.4463 0002321 297.7002 214.1863 15.10075098549619 ISS (ZARYA) 1 25544U 98067A 22059.35607478 .00007602 00000-0 14349-3 0 9997 2 25544 51.6424 155.5462 0005593 196.6846 275.8848 15.49499442328303 CXO 1 25867U 99040B 22059.62860380 .00000752 00000-0 00000-0 0 9995 2 25867 48.3460 242.3908 8685678 230.3773 0.5805 0.37811474 11393 ____________________________________________________________________ These 2-Line ...Continue Reading

[list_settings.list_name] Current TLEs

February 27th 2022 PST

HST 1 20580U 90037B 22057.75159823 .00001562 00000-0 82653-4 0 9992 2 20580 28.4692 182.0444 0002307 285.8811 197.9381 15.10071631549467 ISS (ZARYA) 1 25544U 98067A 22058.37495220 .00004398 00000-0 86521-4 0 9999 2 25544 51.6421 160.4051 0005663 193.3968 202.6879 15.49479869328152 CXO 1 25867U 99040B 22059.62860380 .00000752 00000-0 00000-0 0 9995 2 25867 48.3460 242.3908 8685678 230.3773 0.5805 0.37811474 11393 ____________________________________________________________________ These 2-Line ...Continue Reading

[list_settings.list_name] Current TLEs

February 26th 2022 PST

HST 1 20580U 90037B 22057.09908207 .00001493 00000-0 78514-4 0 9991 2 20580 28.4691 186.3647 0002304 278.1078 251.4318 15.10069419549631 ISS (ZARYA) 1 25544U 98067A 22057.35468642 -.00203444 00000-0 -37247-2 0 9998 2 25544 51.6407 165.4554 0005513 184.6986 276.4691 15.49407887327999 CXO 1 25867U 99040B 22059.62824348 .00000752 00000-0 00000-0 0 9999 2 25867 48.3460 242.3908 8685682 230.3773 0.5315 0.37811155 11389 ____________________________________________________________________ These 2-Line ...Continue Reading

[list_settings.list_name] Current TLEs

February 25th 2022 PST

HST 1 20580U 90037B 22055.83616348 .00001417 00000-0 73963-4 0 9992 2 20580 28.4690 194.7267 0002306 263.0434 227.3444 15.10065439549441 ISS (ZARYA) 1 25544U 98067A 22056.45534014 .00006201 00000-0 11680-3 0 9999 2 25544 51.6404 169.9048 0005476 164.8576 315.3436 15.49934998327859 CXO 1 25867U 99040B 22056.98559314 .00000746 00000-0 00000+0 0 9995 2 25867 48.4256 242.5614 8681525 230.3087 0.7180 0.37808373 22538 ____________________________________________________________________ These 2-Line ...Continue Reading

[list_settings.list_name] Current TLEs

February 24th 2022 PST

HST 1 20580U 90037B 22054.84424775 .00001496 00000-0 78676-4 0 9996 2 20580 28.4688 201.2943 0002312 251.1523 236.2556 15.10063099549024 ISS (ZARYA) 1 25544U 98067A 22055.15522565 .00004933 00000-0 94635-4 0 9995 2 25544 51.6395 176.3484 0005439 158.8939 262.2120 15.49914128327650 CXO 1 25867U 99040B 22056.98559314 .00000746 00000-0 00000+0 0 9995 2 25867 48.4256 242.5614 8681525 230.3087 0.7180 0.37808373 22538 ____________________________________________________________________ These 2-Line ...Continue Reading

[list_settings.list_name] Current TLEs

February 23rd 2022 PST

HST 1 20580U 90037B 22053.85214253 .00001486 00000-0 78097-4 0 9990 2 20580 28.4687 207.8633 0002336 239.4692 243.9360 15.10060261548871 ISS (ZARYA) 1 25544U 98067A 22054.38847078 .00007011 00000-0 13110-3 0 9996 2 25544 51.6410 180.1432 0005504 157.2454 302.7958 15.49909665327538 CXO 1 25867U 99040B 22051.69659385 .00000806 00000-0 00000+0 0 9994 2 25867 48.5794 242.8754 8677685 230.2053 0.5935 0.37814590 22510 ____________________________________________________________________ These 2-Line ...Continue Reading

[list_settings.list_name] Current TLEs

February 22nd 2022 PST

HST 1 20580U 90037B 22052.85978455 .00001570 00000-0 83138-4 0 9996 2 20580 28.4687 214.4341 0002358 227.9300 250.1062 15.10058011548726 ISS (ZARYA) 1 25544U 98067A 22053.35595957 .00006481 00000-0 12189-3 0 9993 2 25544 51.6418 185.2580 0005597 154.0655 301.1205 15.49892672327375 CXO 1 25867U 99040B 22051.69659385 .00000806 00000-0 00000+0 0 9994 2 25867 48.5794 242.8754 8677685 230.2053 0.5935 0.37814590 22510 ____________________________________________________________________ These 2-Line ...Continue Reading
  • This mailing list is a public mailing list - anyone may join or leave, at any time.
  • This mailing list is announce-only.

International Space Station (ISS) / Hubble Space Telescope (HST) / Chandra X-Ray Observatory Orbital Data via EMAIL

Privacy Policy:

Private list